Houston, TX

7:15 PM CST on November 22, 2019 (GMT -0600)
Houston

Weather History for KTME - September, 2019

Change the Weather History Date:

Monday, September 30, 2019

  Actual Average (KSGR) Record (KSGR)
Temperature  
Mean Temperature 86 °F -  
Max Temperature 93 °F 86 °F 96 °F (1956)
Min Temperature 78 °F 61 °F 50 °F (1967)
Cooling Degree Days 20    
Growing Degree Days 36 (Base 50)    
Moisture  
Dew Point 76 °F    
Average Humidity 80    
Maximum Humidity 100    
Minimum Humidity 55    
Precipitation  
Precipitation 0.00 in - - ()
Sea Level Pressure  
Sea Level Pressure 30.01 in    
Wind  
Wind Speed 8 mph (SE)    
Max Wind Speed 16 mph    
Max Gust Speed 21 mph    
Visibility 10 miles    
Events      
Averages and records for this station are not official NWS values.
T = Trace of Precipitation, MM = Missing Value Source: NWS Daily Summary

Daily Weather History Graph

Daily Weather History Graph

Search for Another Location

Airport or City:

Astronomy

Sep. 30, 2019 Rise Set
Actual Time 7:16 AM CDT 7:10 PM CDT
Civil Twilight 6:52 AM CDT 7:34 PM CDT
Nautical Twilight 6:24 AM CDT 8:01 PM CDT
Astronomical Twilight 5:56 AM CDT 8:29 PM CDT
Moon 9:14 AM CDT (9/30) 8:56 PM CDT (9/30)
Length of Visible Light 12h 41m
Length of Day
11h 54m
Waxing Crescent, 6% of the Moon is Illuminated
Sep 30
Waxing Crescent
Oct 5
First Quarter
Oct 13
Full
Oct 21
Last Quarter
Oct 27
New

Hourly Weather History & Observations

Time (CDT) Temp. Heat Index Dew Point Humidity Pressure Visibility Wind Dir Wind Speed Gust Speed Precip Events Conditions
12:15 AM 78.8 °F - 77.0 °F 94% 30.03 in 10.0 mi SE 6.9 mph 12.7 mph N/A   Clear
12:35 AM 78.8 °F - 77.0 °F 94% 30.03 in 10.0 mi SE 8.1 mph - N/A   Clear
12:55 AM 78.8 °F - 77.0 °F 94% 30.03 in 10.0 mi SE 6.9 mph - N/A   Clear
1:15 AM 78.8 °F - 77.0 °F 94% 30.03 in 10.0 mi SE 6.9 mph - N/A   Clear
1:35 AM 78.8 °F - 77.0 °F 94% 30.03 in 9.0 mi SE 6.9 mph - N/A   Unknown
1:55 AM 78.8 °F - 77.0 °F 94% 30.03 in 10.0 mi ESE 5.8 mph - N/A   Unknown
2:15 AM 78.8 °F - 77.0 °F 94% 30.03 in 10.0 mi ESE 5.8 mph - N/A   Unknown
2:35 AM 78.8 °F - 77.0 °F 94% 30.03 in 10.0 mi SE 5.8 mph - N/A   Unknown
2:55 AM 78.8 °F - 77.0 °F 94% 30.02 in 10.0 mi ESE 5.8 mph - N/A   Unknown
3:15 AM 78.8 °F - 77.0 °F 94% 30.02 in 10.0 mi ESE 5.8 mph - N/A   Unknown
3:35 AM 78.8 °F - 77.0 °F 94% 30.02 in 10.0 mi SE 4.6 mph - N/A   Unknown
3:55 AM 78.8 °F - 77.0 °F 94% 30.02 in 10.0 mi ESE 4.6 mph - N/A   Unknown
4:15 AM 78.8 °F - 77.0 °F 94% 30.02 in 9.0 mi SE 4.6 mph - N/A   Unknown
4:35 AM 78.8 °F - 77.0 °F 94% 30.01 in 9.0 mi SE 6.9 mph - N/A   Unknown
4:55 AM 78.8 °F - 78.8 °F 100% 30.01 in 8.0 mi ESE 8.1 mph - N/A   Unknown
5:15 AM 78.8 °F - 78.8 °F 100% 30.01 in 9.0 mi ESE 6.9 mph - N/A   Unknown
5:35 AM 78.8 °F - 77.0 °F 94% 30.02 in 9.0 mi ESE 5.8 mph - N/A   Unknown
5:55 AM 78.8 °F - 77.0 °F 94% 30.02 in 9.0 mi SE 5.8 mph - N/A   Unknown
6:15 AM 78.8 °F - 78.8 °F 100% 30.02 in 9.0 mi SE 8.1 mph - N/A   Unknown
6:35 AM 78.8 °F - 77.0 °F 94% 30.03 in 9.0 mi SE 8.1 mph - N/A   Unknown
6:55 AM 78.8 °F - 78.8 °F 100% 30.02 in 8.0 mi SE 8.1 mph - N/A   Unknown
7:15 AM 78.8 °F - 78.8 °F 100% 30.02 in 8.0 mi SE 9.2 mph - N/A   Unknown
7:35 AM 78.8 °F - 78.8 °F 100% 30.03 in 6.0 mi SE 8.1 mph - N/A   Clear
7:55 AM 80.6 °F 88.1 °F 78.8 °F 94% 30.03 in 7.0 mi SE 9.2 mph - N/A   Clear
8:15 AM 80.6 °F 88.1 °F 78.8 °F 94% 30.03 in 7.0 mi SE 9.2 mph - N/A   Clear
8:35 AM 82.4 °F 92.4 °F 78.8 °F 89% 30.03 in 9.0 mi SE 10.4 mph - N/A   Clear
8:55 AM 82.4 °F 92.4 °F 78.8 °F 89% 30.04 in 8.0 mi SE 11.5 mph - N/A   Partly Cloudy
9:15 AM 84.2 °F 96.1 °F 78.8 °F 84% 30.04 in 9.0 mi SE 9.2 mph 17.3 mph N/A   Scattered Clouds
9:35 AM 84.2 °F 96.1 °F 78.8 °F 84% 30.05 in 9.0 mi SE 10.4 mph - N/A   Mostly Cloudy
9:55 AM 86.0 °F 99.3 °F 78.8 °F 79% 30.05 in 9.0 mi SSE 11.5 mph 18.4 mph N/A   Mostly Cloudy
10:15 AM 86.0 °F 99.3 °F 78.8 °F 79% 30.06 in 10.0 mi SSE 11.5 mph - N/A   Overcast
10:35 AM 86.0 °F 99.3 °F 78.8 °F 79% 30.06 in 9.0 mi SSE 9.2 mph 15.0 mph N/A   Overcast
10:55 AM 87.8 °F 102.5 °F 78.8 °F 75% 30.06 in 9.0 mi South 9.2 mph 20.7 mph N/A   Overcast
11:15 AM 87.8 °F 99.7 °F 77.0 °F 70% 30.06 in 9.0 mi South 11.5 mph - N/A   Mostly Cloudy
11:35 AM 87.8 °F 99.7 °F 77.0 °F 70% 30.06 in 10.0 mi South 11.5 mph - N/A   Overcast
11:55 AM 89.6 °F 102.2 °F 77.0 °F 66% 30.06 in 10.0 mi SSE 10.4 mph 16.1 mph N/A   Mostly Cloudy
12:15 PM 91.4 °F 105.1 °F 77.0 °F 63% 30.05 in 10.0 mi SSE 13.8 mph - N/A   Mostly Cloudy
12:35 PM 89.6 °F 102.2 °F 77.0 °F 66% 30.04 in 10.0 mi SSE 9.2 mph 15.0 mph N/A   Scattered Clouds
12:55 PM 91.4 °F 105.1 °F 77.0 °F 63% 30.04 in 10.0 mi SE 11.5 mph - N/A   Mostly Cloudy
1:15 PM 91.4 °F 102.5 °F 75.2 °F 59% 30.03 in 10.0 mi SSE 9.2 mph 18.4 mph N/A   Scattered Clouds
1:35 PM 91.4 °F 102.5 °F 75.2 °F 59% 30.02 in 10.0 mi SE 10.4 mph 16.1 mph N/A   Scattered Clouds
1:55 PM 93.2 °F 105.0 °F 75.2 °F 56% 30.01 in 10.0 mi SE 12.7 mph - N/A   Scattered Clouds
2:15 PM 91.4 °F 102.5 °F 75.2 °F 59% 30.00 in 10.0 mi SSE 12.7 mph 19.6 mph N/A   Mostly Cloudy
2:35 PM 93.2 °F 105.0 °F 75.2 °F 56% 29.99 in 10.0 mi SSE 13.8 mph - N/A   Mostly Cloudy
2:55 PM 89.6 °F 99.8 °F 75.2 °F 62% 29.99 in 10.0 mi SE 10.4 mph 17.3 mph N/A   Mostly Cloudy
3:15 PM 91.4 °F 102.5 °F 75.2 °F 59% 29.98 in 10.0 mi SE 15.0 mph - N/A   Mostly Cloudy
3:35 PM 91.4 °F 102.5 °F 75.2 °F 59% 29.97 in 10.0 mi South 16.1 mph - N/A   Partly Cloudy
3:55 PM 91.4 °F 102.5 °F 75.2 °F 59% 29.97 in 10.0 mi SSE 12.7 mph 18.4 mph N/A   Clear
4:15 PM 91.4 °F 102.5 °F 75.2 °F 59% 29.97 in 10.0 mi SSE 12.7 mph - N/A   Clear
4:35 PM 91.4 °F 102.5 °F 75.2 °F 59% 29.96 in 10.0 mi SSE 12.7 mph 18.4 mph N/A   Partly Cloudy
4:55 PM 91.4 °F 100.1 °F 73.4 °F 55% 29.96 in 10.0 mi SE 15.0 mph - N/A   Partly Cloudy
5:15 PM 89.6 °F 98.2 °F 73.4 °F 59% 29.96 in 10.0 mi SSE 12.7 mph - N/A   Clear
5:35 PM 89.6 °F 98.2 °F 73.4 °F 59% 29.95 in 10.0 mi SSE 11.5 mph - N/A   Clear
5:55 PM 89.6 °F 99.8 °F 75.2 °F 62% 29.95 in 10.0 mi South 12.7 mph - N/A   Clear
6:15 PM 87.8 °F 95.6 °F 73.4 °F 62% 29.95 in 10.0 mi SSE 10.4 mph 16.1 mph N/A   Clear
6:35 PM 87.8 °F 95.6 °F 73.4 °F 62% 29.95 in 10.0 mi SSE 12.7 mph - N/A   Clear
6:55 PM 86.0 °F 93.4 °F 73.4 °F 66% 29.96 in 10.0 mi SSE 10.4 mph 19.6 mph N/A   Clear
7:15 PM 84.2 °F 90.9 °F 73.4 °F 70% 29.96 in 10.0 mi SSE 8.1 mph 15.0 mph N/A   Clear
7:35 PM 84.2 °F 90.9 °F 73.4 °F 70% 29.96 in 10.0 mi SSE 9.2 mph - N/A   Clear
7:55 PM 82.4 °F 89.5 °F 75.2 °F 79% 29.96 in 10.0 mi SSE 8.1 mph - N/A   Unknown
8:15 PM 82.4 °F 89.5 °F 75.2 °F 79% 29.97 in 10.0 mi SSE 8.1 mph - N/A   Unknown
8:35 PM 82.4 °F 89.5 °F 75.2 °F 79% 29.97 in 10.0 mi SSE 11.5 mph - N/A   Unknown
8:55 PM 82.4 °F 89.5 °F 75.2 °F 79% 29.98 in 10.0 mi SE 9.2 mph - N/A   Unknown
9:15 PM 80.6 °F 86.2 °F 75.2 °F 84% 29.98 in 10.0 mi SE 8.1 mph - N/A   Unknown
9:35 PM 80.6 °F 86.2 °F 75.2 °F 84% 29.99 in 10.0 mi SE 6.9 mph - N/A   Unknown
9:55 PM 80.6 °F 87.1 °F 77.0 °F 89% 29.99 in 10.0 mi SE 9.2 mph - N/A   Unknown
10:15 PM 80.6 °F 87.1 °F 77.0 °F 89% 29.99 in 10.0 mi SE 8.1 mph - N/A   Unknown
10:35 PM 80.6 °F 86.2 °F 75.2 °F 84% 29.99 in 10.0 mi SE 6.9 mph - N/A   Clear
10:55 PM 80.6 °F 87.1 °F 77.0 °F 89% 30.00 in 10.0 mi SE 6.9 mph - N/A   Clear
11:15 PM 78.8 °F - 75.2 °F 89% 30.00 in 10.0 mi SE 6.9 mph - N/A   Unknown
11:35 PM 80.6 °F 86.2 °F 75.2 °F 84% 30.00 in 10.0 mi SE 8.1 mph - N/A   Unknown
11:55 PM 80.6 °F 86.2 °F 75.2 °F 84% 30.00 in 10.0 mi SE 6.9 mph - N/A   Unknown